When you browse on this site, cookies collect data to enhance your experience and personalize the content and advertising you see.
Visit our Privacy Policy to learn more. By continuing to use the site, you agree to this use of cookies and data.
  • In Österreich
  • Länderverzeichnis
  • Für 7 Tage
  • Wassertemperatur
  • Satellitenkarten
  • Wetterkarte
  • News
  • Widgets
  • user-avatar
    Anmelden

    Stündliche Wetter Suisun City

    Heute, 17 Februar, Sonntag

    Zeit Temperatur Niederschläge Wind Luftdruck Luftfeuchtigkeit
    00:00 +4°C° 0 mm 3 m/S 764 mmHg 77%
    01:00 +5°C° 0 mm 2 m/S 764 mmHg 79%
    02:00 +6°C° 0.6 mm 1 m/S 764 mmHg 82%
    03:00 +6°C° 0.6 mm 1 m/S 763 mmHg 86%
    04:00 +6°C° 0.6 mm 0 m/S 763 mmHg 89%
    05:00 +6°C° 0.2 mm 1 m/S 763 mmHg 90%
    06:00 +6°C° 0.2 mm 1 m/S 763 mmHg 92%
    07:00 +6°C° 0.2 mm 1 m/S 762 mmHg 93%
    08:00 +6°C° 0 mm 2 m/S 763 mmHg 86%
    09:00 +7°C° 0 mm 2 m/S 763 mmHg 79%
    10:00 +8°C° 0 mm 3 m/S 763 mmHg 72%
    11:00 +9°C° 0.3 mm 3 m/S 763 mmHg 70%
    12:00 +9°C° 0.3 mm 3 m/S 762 mmHg 68%
    13:00 +10°C° 0.3 mm 3 m/S 762 mmHg 65%
    14:00 +9°C° 0.3 mm 3 m/S 762 mmHg 65%
    15:00 +9°C° 0.3 mm 2 m/S 762 mmHg 65%
    16:00 +9°C° 0.3 mm 2 m/S 762 mmHg 64%
    17:00 +8°C° 0.1 mm 2 m/S 762 mmHg 68%
    18:00 +8°C° 0.1 mm 1 m/S 762 mmHg 72%
    19:00 +6°C° 0.1 mm 1 m/S 763 mmHg 76%
    20:00 +6°C° 0 mm 1 m/S 763 mmHg 77%
    21:00 +4°C° 0 mm 2 m/S 764 mmHg 78%
    22:00 +4°C° 0 mm 2 m/S 764 mmHg 78%
    23:00 +4°C° 0 mm 2 m/S 764 mmHg 77%

    Morgen, 18 Februar, Montag

    Zeit Temperatur Niederschläge Wind Luftdruck Luftfeuchtigkeit
    00:00 +3°C° 0 mm 2 m/S 765 mmHg 76%
    01:00 +2°C° 0 mm 3 m/S 765 mmHg 75%
    02:00 +2°C° 0 mm 3 m/S 765 mmHg 74%
    03:00 +1°C° 0 mm 3 m/S 765 mmHg 72%
    04:00 +1°C° 0 mm 3 m/S 765 mmHg 71%
    05:00 +1°C° 0 mm 3 m/S 766 mmHg 70%
    06:00 +1°C° 0 mm 3 m/S 766 mmHg 69%
    07:00 0°C° 0 mm 3 m/S 766 mmHg 67%
    08:00 +2°C° 0 mm 3 m/S 767 mmHg 61%
    09:00 +4°C° 0 mm 3 m/S 767 mmHg 55%
    10:00 +7°C° 0 mm 3 m/S 767 mmHg 48%
    11:00 +9°C° 0 mm 3 m/S 767 mmHg 45%
    12:00 +10°C° 0 mm 3 m/S 766 mmHg 42%
    13:00 +12°C° 0 mm 3 m/S 766 mmHg 38%
    14:00 +12°C° 0 mm 3 m/S 766 mmHg 40%
    15:00 +13°C° 0 mm 2 m/S 765 mmHg 41%
    16:00 +13°C° 0 mm 2 m/S 765 mmHg 43%
    17:00 +10°C° 0 mm 2 m/S 765 mmHg 49%
    18:00 +9°C° 0 mm 1 m/S 766 mmHg 55%
    19:00 +7°C° 0 mm 1 m/S 766 mmHg 60%
    20:00 +7°C° 0 mm 1 m/S 766 mmHg 60%
    21:00 +6°C° 0 mm 1 m/S 766 mmHg 61%
    22:00 +6°C° 0 mm 1 m/S 767 mmHg 61%
    23:00 +5°C° 0 mm 1 m/S 767 mmHg 63%

    übermorgen, 19 Februar, Dienstag

    Zeit Temperatur Niederschläge Wind Luftdruck Luftfeuchtigkeit
    00:00 +5°C° 0 mm 1 m/S 767 mmHg 64%
    01:00 +4°C° 0 mm 1 m/S 767 mmHg 66%
    02:00 +4°C° 0 mm 1 m/S 767 mmHg 68%
    03:00 +3°C° 0 mm 1 m/S 767 mmHg 71%
    04:00 +3°C° 0 mm 1 m/S 766 mmHg 73%
    05:00 +3°C° 0 mm 1 m/S 767 mmHg 75%
    06:00 +2°C° 0 mm 1 m/S 767 mmHg 76%
    07:00 +2°C° 0 mm 1 m/S 767 mmHg 77%
    08:00 +4°C° 0 mm 1 m/S 767 mmHg 69%
    09:00 +6°C° 0 mm 1 m/S 767 mmHg 61%
    10:00 +7°C° 0 mm 2 m/S 767 mmHg 53%
    11:00 +9°C° 0 mm 1 m/S 766 mmHg 50%
    12:00 +11°C° 0 mm 1 m/S 766 mmHg 47%
    13:00 +12°C° 0 mm 1 m/S 766 mmHg 44%
    14:00 +12°C° 0 mm 1 m/S 765 mmHg 45%
    15:00 +12°C° 0 mm 1 m/S 765 mmHg 46%
    16:00 +12°C° 0 mm 1 m/S 764 mmHg 47%
    17:00 +9°C° 0 mm 0 m/S 764 mmHg 53%
    18:00 +7°C° 0 mm 0 m/S 764 mmHg 59%
    19:00 +6°C° 0 mm 0 m/S 764 mmHg 65%
    20:00 +5°C° 0 mm 0 m/S 764 mmHg 66%
    21:00 +5°C° 0 mm 0 m/S 764 mmHg 67%
    22:00 +5°C° 0 mm 0 m/S 764 mmHg 69%
    23:00 +5°C° 0 mm 0 m/S 764 mmHg 70%

    20 Februar, Mittwoch

    Zeit Temperatur Niederschläge Wind Luftdruck Luftfeuchtigkeit
    00:00 +4°C° 0 mm 0 m/S 764 mmHg 72%
    01:00 +4°C° 0 mm 0 m/S 764 mmHg 74%
    02:00 +4°C° 0 mm 0 m/S 763 mmHg 76%
    03:00 +3°C° 0 mm 0 m/S 763 mmHg 78%
    04:00 +4°C° 0 mm 1 m/S 762 mmHg 80%
    05:00 +3°C° 0 mm 1 m/S 762 mmHg 82%
    06:00 +3°C° 0 mm 1 m/S 762 mmHg 83%
    07:00 +3°C° 0 mm 1 m/S 762 mmHg 85%
    08:00 +5°C° 0 mm 1 m/S 761 mmHg 77%
    09:00 +7°C° 0 mm 1 m/S 761 mmHg 70%
    10:00 +9°C° 0 mm 1 m/S 760 mmHg 62%
    11:00 +9°C° 0.1 mm 2 m/S 759 mmHg 60%
    12:00 +10°C° 0.1 mm 3 m/S 759 mmHg 57%
    13:00 +12°C° 0.1 mm 4 m/S 758 mmHg 55%
    14:00 +11°C° 0.6 mm 3 m/S 757 mmHg 59%
    15:00 +10°C° 0.6 mm 3 m/S 756 mmHg 63%
    16:00 +10°C° 0.6 mm 3 m/S 756 mmHg 67%
    17:00 +9°C° 0.2 mm 2 m/S 756 mmHg 71%
    18:00 +7°C° 0.2 mm 2 m/S 756 mmHg 75%
    19:00 +7°C° 0.2 mm 1 m/S 756 mmHg 80%
    20:00 +6°C° 0 mm 1 m/S 756 mmHg 81%
    21:00 +5°C° 0 mm 2 m/S 756 mmHg 81%
    22:00 +4°C° 0 mm 2 m/S 756 mmHg 82%
    23:00 +4°C° 0 mm 2 m/S 756 mmHg 82%

    21 Februar, Donnerstag

    Zeit Temperatur Niederschläge Wind Luftdruck Luftfeuchtigkeit
    00:00 +3°C° 0 mm 2 m/S 756 mmHg 81%
    01:00 +3°C° 0 mm 2 m/S 756 mmHg 81%
    02:00 +2°C° 0 mm 2 m/S 755 mmHg 81%
    03:00 +2°C° 0 mm 2 m/S 755 mmHg 81%
    04:00 +2°C° 0 mm 2 m/S 755 mmHg 81%
    05:00 +1°C° 0 mm 2 m/S 755 mmHg 80%
    06:00 +1°C° 0 mm 2 m/S 755 mmHg 80%
    07:00 +1°C° 0 mm 2 m/S 755 mmHg 79%
    08:00 +2°C° 0 mm 3 m/S 755 mmHg 70%
    09:00 +4°C° 0 mm 4 m/S 755 mmHg 61%
    10:00 +6°C° 0 mm 5 m/S 755 mmHg 52%
    11:00 +7°C° 0 mm 5 m/S 755 mmHg 48%
    12:00 +9°C° 0 mm 5 m/S 755 mmHg 45%
    13:00 +10°C° 0 mm 6 m/S 754 mmHg 41%
    14:00 +10°C° 0 mm 6 m/S 754 mmHg 41%
    15:00 +10°C° 0 mm 6 m/S 754 mmHg 41%
    16:00 +10°C° 0 mm 6 m/S 754 mmHg 41%
    17:00 +8°C° 0 mm 6 m/S 755 mmHg 42%
    18:00 +5°C° 0 mm 6 m/S 756 mmHg 43%
    19:00 +4°C° 0 mm 6 m/S 756 mmHg 43%
    20:00 +4°C° 0 mm 6 m/S 757 mmHg 44%
    21:00 +3°C° 0 mm 5 m/S 758 mmHg 45%
    22:00 +3°C° 0 mm 5 m/S 758 mmHg 46%
    23:00 +2°C° 0 mm 5 m/S 759 mmHg 47%

    22 Februar, Freitag

    Zeit Temperatur Niederschläge Wind Luftdruck Luftfeuchtigkeit
    00:00 +2°C° 0 mm 5 m/S 759 mmHg 48%
    01:00 +1°C° 0 mm 4 m/S 760 mmHg 50%
    02:00 +1°C° 0 mm 4 m/S 760 mmHg 50%
    03:00 +1°C° 0 mm 3 m/S 760 mmHg 50%
    04:00 +1°C° 0 mm 3 m/S 761 mmHg 51%
    05:00 0°C° 0 mm 3 m/S 762 mmHg 52%
    06:00 +1°C° 0 mm 2 m/S 762 mmHg 54%
    07:00 -1°C° 0 mm 2 m/S 763 mmHg 55%
    08:00 +3°C° 0 mm 2 m/S 763 mmHg 51%
    09:00 +5°C° 0 mm 2 m/S 764 mmHg 46%
    10:00 +7°C° 0 mm 3 m/S 764 mmHg 42%
    11:00 +8°C° 0 mm 2 m/S 764 mmHg 40%
    12:00 +10°C° 0 mm 2 m/S 764 mmHg 39%
    13:00 +12°C° 0 mm 2 m/S 764 mmHg 37%
    14:00 +12°C° 0 mm 1 m/S 764 mmHg 38%
    15:00 +13°C° 0 mm 1 m/S 764 mmHg 39%
    16:00 +13°C° 0 mm 1 m/S 764 mmHg 40%
    17:00 +11°C° 0 mm 1 m/S 765 mmHg 46%
    18:00 +9°C° 0 mm 1 m/S 765 mmHg 52%
    19:00 +6°C° 0 mm 0 m/S 766 mmHg 58%
    20:00 +6°C° 0 mm 1 m/S 766 mmHg 60%
    21:00 +6°C° 0 mm 1 m/S 767 mmHg 63%
    22:00 +5°C° 0 mm 1 m/S 767 mmHg 65%
    23:00 +4°C° 0 mm 0 m/S 767 mmHg 66%
    Mehr zeigen